{"data":{"norad_id":69662,"intl_designator":"2026-143P","name":"STARLINK-37852","alt_names":[],"object_type":"PAYLOAD","status":"ACTIVE","operator":null,"country":"US","launch_date":"2026-06-21","launch_site_code":"AFWTR","launch_vehicle":null,"mission":null,"orbit_class":"UNKNOWN","rcs_meters":null,"size_class":null,"mass_kg":null,"dimensions":null,"purposes":["comms"],"wikipedia_slug":null,"has_3d_model":false,"image_url":null,"decayed_at":null,"tle_current":{"epoch":"2026-09-20T01:28:09.922944Z","epoch_age_seconds":59597,"freshness":"FRESH","line1":"1 69662U 26143P   26263.06122596  .00020012  00000+0  62092-3 0  9991","line2":"2 69662  97.2842 306.2298 0001511 103.8740 256.2671 15.33426547 15076","mean_motion":15.33426547,"eccentricity":0.0001511,"inclination_deg":97.2842,"raan_deg":306.2298,"arg_perigee_deg":103.874,"mean_anomaly_deg":256.2671,"bstar":0.00062092,"rev_number":1507,"period_min":93.907334708481,"perigee_km":464.56398980361,"apogee_km":466.63216654423,"semimajor_km":6843.7350781739,"source":"CELESTRAK","updated_at":"2026-09-20T09:00:44.249467Z"}}}